Wind_Speed
38 38 41 43 45 52 55 58 61 67 74 76 79 79 76 79 82 86 91 94 99 104 107 104 109 117 117 123 94 62 56 50 44 44 36 27 40 52 60 61 55 59 63 65 67
40 35 40 42 45 49 58 62 65 68 73 79 83 80 80 83 87 90 94 99 103 107 110 111 115 121 127 119 87 56 51 44 42 41 39 31 37 46 58 63 60 68 68 66 62
38 37 41 43 47 53 59 65 68 70 76 81 79 83 85 88 92 95 99 102 107 112 114 119 118 121 123 107 86 57 45 42 40 41 41 34 37 44 55 62 70 68 68 68 62
37 38 41 44 50 56 62 65 70 74 77 81 82 87 90 94 97 102 103 106 111 115 117 124 114 125 124 104 81 53 45 38 36 42 42 38 40 47 54 62 69 69 72 66 68
41 42 45 47 54 59 63 66 72 76 78 84 87 89 93 100 101 104 108 111 115 119 123 116 123 122 134 101 71 55 41 35 34 41 44 42 42 50 56 61 67 69 73 74 71
42 44 48 51 55 60 65 67 71 78 79 86 87 90 95 101 105 110 112 113 116 121 124 123 118 128 122 99 65 51 41 35 32 34 42 42 44 50 54 60 68 69 75 71 74
43 46 49 52 56 62 67 72 76 80 79 87 91 94 100 104 106 111 117 115 119 126 128 127 121 130 120 102 68 51 43 34 29 31 38 43 46 49 54 64 72 74 70 74 78
46 46 52 54 58 63 68 75 78 82 79 86 93 96 103 107 110 112 118 123 125 129 132 132 135 128 121 115 68 51 45 33 32 26 32 41 45 48 54 59 70 69 75 76 74
46 51 55 58 60 64 69 77 77 85 82 88 92 98 105 110 114 118 121 123 127 131 135 136 137 134 126 104 67 48 44 33 31 28 30 36 45 51 61 64 69 71 80 78 74
50 53 57 59 61 65 72 75 84 84 85 90 94 100 107 111 116 121 125 129 130 133 135 140 140 133 128 87 65 49 42 32 29 27 31 37 45 53 61 65 68 72 80 86 78
53 57 60 63 63 69 73 78 85 87 91 93 94 100 108 115 117 123 126 129 133 138 140 141 140 140 124 86 60 50 40 33 29 26 30 36 42 51 58 66 72 74 83 89 84
55 57 63 66 67 69 73 78 84 88 92 95 97 101 108 114 119 122 127 130 133 136 142 144 141 138 133 85 60 50 41 34 28 24 26 32 38 47 58 65 73 77 84 87 82
59 64 66 68 71 74 76 80 86 91 92 98 99 104 109 113 119 123 127 133 135 140 145 148 144 146 127 78 60 50 40 34 25 22 22 27 37 46 54 61 68 77 80 85 82
64 64 65 68 70 73 78 83 88 90 95 101 101 101 111 115 121 125 131 135 136 141 148 148 152 142 104 69 57 49 37 31 21 18 19 25 35 44 51 56 62 74 78 85 81
67 65 68 69 73 75 80 84 89 94 99 100 101 109 111 116 122 129 132 140 140 143 147 151 158 136 89 70 57 46 34 28 18 12 16 23 33 41 48 53 58 67 77 79 78
74 78 76 74 75 78 83 87 92 95 98 98 104 109 114 119 123 128 133 137 141 146 148 154 156 131 86 67 54 41 32 26 15 11 13 20 30 36 46 51 58 62 67 72 81
76 77 77 76 78 82 87 90 94 96 100 100 103 108 114 119 122 126 132 135 139 143 149 153 152 122 78 67 52 37 30 23 13 10 14 23 29 36 40 47 52 60 69 72 82
79 78 78 80 84 83 88 90 93 97 102 104 105 111 115 119 124 129 133 138 142 148 150 157 148 103 77 73 49 33 28 20 10 9 15 23 29 34 38 44 51 56 67 76 85
78 81 80 80 82 84 87 90 93 97 102 105 107 112 117 122 127 132 136 140 145 149 155 154 136 93 77 71 46 31 25 17 9 9 17 24 29 36 38 45 50 60 70 79 87
80 81 82 85 87 87 90 90 95 97 103 107 110 115 118 122 125 132 137 141 147 151 155 149 127 95 82 70 42 29 22 14 8 9 17 25 31 38 41 44 57 63 71 80 86
83 87 87 87 91 91 89 93 93 99 104 107 113 118 119 123 127 132 138 142 148 153 152 144 117 91 86 61 38 25 20 10 7 11 17 23 33 38 43 53 59 66 70 75 79
89 90 88 91 89 92 94 94 96 103 106 109 114 116 120 122 127 132 140 144 151 156 157 140 110 92 77 56 35 22 17 7 8 15 23 27 32 39 52 60 66 70 75 77 79
89 88 92 90 94 93 95 95 98 103 104 110 112 117 120 123 127 134 140 146 153 154 150 136 107 92 71 49 30 19 14 8 12 19 26 30 35 45 57 64 69 72 76 76 75
86 88 89 90 93 95 97 99 101 104 106 108 113 117 121 123 128 136 141 147 151 153 147 123 97 92 68 41 25 15 12 11 16 23 29 33 40 53 63 67 72 77 78 79 79
87 92 93 94 96 97 101 104 102 105 108 109 114 117 120 125 132 138 142 146 148 148 133 116 94 87 61 36 22 13 12 13 20 26 32 37 47 61 68 70 73 77 81 78 78
91 91 94 96 97 97 98 98 101 103 107 111 115 117 121 124 131 135 138 140 143 141 123 106 92 79 56 34 19 12 14 17 23 30 34 41 52 66 72 72 72 75 84 84 82
95 95 92 92 95 99 99 98 97 105 108 112 113 119 124 127 129 133 133 132 137 124 115 103 87 70 50 33 20 12 16 20 26 33 37 45 54 68 73 74 78 79 86 90 92
Wind_Direction
339 340 337 347 341 342 343 344 342 342 342 343 343 341 341 342 342 343 344 345 346 346 349 349 347 348 350 350 343 320 306 298 287 276 270 236 236 232 228 231 225 224 227 223 225
332 338 337 344 342 338 338 338 340 341 341 339 338 341 341 340 341 342 343 345 345 345 346 346 347 348 348 348 341 321 305 295 281 268 263 240 226 228 228 227 223 220 226 228 225
331 332 335 334 335 335 335 337 338 339 339 338 339 338 340 339 340 341 342 343 343 344 346 346 346 347 349 345 341 324 306 295 273 264 256 242 228 217 225 221 225 219 222 228 225
327 329 332 331 333 332 335 335 337 337 337 338 337 336 339 339 340 341 342 343 343 342 344 346 347 348 349 345 341 330 312 292 269 255 253 240 230 221 216 215 222 219 220 220 224
329 328 330 328 331 333 333 334 336 335 336 336 335 334 337 338 339 339 341 342 343 343 344 348 346 351 347 343 333 325 313 296 268 255 246 242 232 226 216 211 218 217 216 219 221
323 323 325 327 328 330 333 334 335 334 336 336 336 335 335 337 339 339 340 339 341 340 344 351 354 351 348 342 334 321 312 297 273 255 244 237 232 229 219 210 217 218 214 213 220
319 321 322 326 327 328 331 332 332 333 331 334 337 338 338 339 338 338 337 338 340 341 343 346 352 351 350 345 334 320 313 304 281 254 244 238 233 229 220 207 213 215 215 213 216
314 319 321 322 323 325 327 330 332 333 332 333 334 337 338 338 337 336 337 339 339 338 341 343 346 350 349 349 337 324 314 307 291 265 237 234 232 226 222 215 214 209 214 215 211
309 315 317 317 319 322 326 328 328 332 329 331 333 335 336 336 336 337 337 337 338 338 338 341 344 347 347 346 339 327 315 307 286 272 251 231 231 220 221 214 212 208 212 218 208
310 310 311 311 317 320 324 326 328 330 330 330 333 333 334 333 335 335 336 337 337 336 338 341 343 347 349 343 339 329 321 311 292 274 254 237 225 223 218 217 213 207 210 215 212
308 308 307 311 316 319 323 325 327 328 330 329 331 333 332 333 333 334 335 334 335 336 337 341 344 348 354 342 339 331 322 313 298 274 257 238 224 223 217 215 211 209 209 213 210
305 306 305 311 314 316 319 323 326 327 330 329 329 331 331 332 333 332 332 332 333 334 337 340 343 345 346 342 338 334 324 315 299 275 250 237 224 217 217 212 211 209 209 212 209
301 304 308 312 312 315 317 323 324 327 328 329 329 328 329 330 330 329 331 331 332 334 336 340 340 343 345 343 338 334 325 315 299 273 250 234 227 216 217 214 209 208 209 210 207
297 301 306 312 312 313 316 320 322 324 325 327 326 326 327 330 329 329 329 331 331 332 335 339 339 345 345 344 338 336 327 315 295 273 248 233 224 217 215 215 209 206 205 208 206
295 299 303 307 311 313 316 318 320 322 324 325 325 326 326 327 329 328 328 330 329 332 334 337 339 346 345 343 339 336 325 314 299 272 240 226 222 212 211 207 206 205 205 203 202
296 299 300 304 309 310 313 315 318 320 323 323 324 325 326 326 328 328 326 328 328 331 333 336 338 344 345 342 339 334 325 313 299 275 238 217 210 209 206 202 198 198 203 201 200
295 297 300 302 305 310 313 315 316 318 321 321 322 323 324 324 325 326 325 327 329 330 332 336 339 344 347 347 339 331 322 309 295 266 218 204 198 198 196 194 198 193 194 195 199
295 298 300 302 304 307 311 313 314 316 319 320 320 321 321 322 323 325 325 327 329 329 333 335 340 346 348 348 339 330 319 307 293 256 213 198 191 186 191 190 191 189 189 191 197
295 298 300 303 305 306 309 310 312 315 318 319 319 319 319 321 323 324 325 327 329 330 332 336 341 345 347 349 340 328 316 307 288 241 213 192 185 182 183 190 185 186 187 189 194
294 300 300 303 305 306 308 309 311 314 316 316 316 318 319 321 324 325 325 326 327 329 333 335 341 344 348 348 338 326 312 299 278 232 216 193 185 181 180 181 180 182 186 190 193
293 298 299 302 304 305 307 308 310 312 314 314 316 317 319 321 324 325 326 327 327 329 332 335 343 344 346 346 335 327 307 291 258 215 202 201 185 181 175 177 179 180 183 188 193
293 295 297 300 302 303 305 308 311 312 312 314 315 316 320 323 324 325 326 327 328 330 332 335 344 342 346 343 333 324 300 267 230 205 196 191 190 176 176 178 179 179 182 190 189
291 291 294 297 300 301 304 307 309 310 312 315 315 317 321 323 324 325 325 326 327 329 331 335 341 341 343 340 330 317 289 242 217 212 198 190 182 178 182 180 179 179 182 182 187
288 290 292 295 298 300 303 305 308 310 312 315 317 318 321 324 325 325 325 326 328 329 329 336 339 343 340 337 326 306 273 224 213 208 199 188 179 180 184 183 182 181 181 184 181
285 288 291 293 296 300 303 305 310 311 313 316 317 319 322 323 323 323 326 326 326 328 331 336 338 341 339 333 324 295 258 209 211 211 200 187 181 182 185 185 185 181 179 179 181
284 287 289 294 299 302 307 309 311 313 315 315 318 320 321 324 324 326 326 326 326 328 332 335 338 339 336 331 321 283 244 208 209 207 204 186 185 184 186 185 185 183 177 175 177
285 287 292 297 300 302 307 309 313 313 315 316 319 320 322 323 325 325 324 324 325 325 330 335 337 337 333 328 315 269 236 209 207 202 206 190 188 188 188 186 181 179 179 176 173
Height
10869 10864 10857 10853 10847 10840 10834 10829 10821 10814 10806 10798 10790 10782 10773 10763 10754 10745 10734 10723 10708 10696 10682 10666 10649 10630 10611 10589 10559 10545 10540 10539 10537 10537 10543 10557 10560 10575 10584 10595 10615 10626 10629 10636 10647
10865 10859 10853 10848 10842 10835 10828 10822 10814 10806 10798 10790 10782 10772 10763 10753 10744 10734 10723 10708 10695 10682 10666 10650 10632 10613 10592 10571 10544 10535 10526 10526 10526 10526 10531 10540 10547 10558 10567 10581 10598 10609 10617 10624 10643
10860 10855 10849 10842 10836 10829 10823 10815 10808 10800 10791 10782 10773 10763 10753 10742 10732 10721 10708 10695 10681 10663 10646 10632 10615 10596 10572 10542 10529 10517 10515 10512 10514 10513 10516 10527 10532 10542 10553 10566 10574 10596 10604 10614 10634
10854 10849 10843 10837 10831 10824 10817 10809 10801 10793 10784 10775 10765 10754 10742 10728 10718 10704 10695 10680 10665 10648 10631 10619 10602 10578 10554 10530 10513 10504 10499 10497 10499 10499 10501 10511 10519 10525 10536 10545 10553 10575 10593 10598 10615
10849 10843 10838 10831 10825 10818 10810 10802 10794 10786 10777 10766 10755 10744 10733 10720 10708 10694 10680 10662 10649 10636 10625 10607 10588 10566 10541 10516 10494 10487 10485 10483 10484 10485 10488 10492 10500 10507 10521 10531 10541 10556 10572 10586 10599
10844 10837 10832 10825 10818 10811 10803 10796 10788 10778 10769 10758 10746 10733 10723 10709 10694 10678 10666 10656 10642 10627 10609 10593 10573 10551 10520 10504 10489 10477 10472 10469 10469 10470 10471 10476 10484 10491 10506 10522 10531 10542 10553 10570 10590
10838 10831 10824 10818 10811 10804 10796 10789 10781 10771 10761 10750 10736 10723 10710 10699 10685 10671 10653 10647 10627 10605 10594 10578 10557 10540 10513 10489 10475 10465 10457 10455 10453 10456 10457 10461 10468 10477 10491 10506 10511 10528 10543 10560 10574
10832 10825 10818 10811 10805 10798 10790 10782 10773 10763 10752 10741 10728 10714 10699 10686 10675 10664 10644 10619 10607 10593 10578 10559 10543 10524 10506 10478 10461 10451 10444 10442 10435 10440 10445 10447 10453 10466 10479 10494 10500 10518 10532 10541 10562
10824 10818 10811 10804 10797 10790 10783 10774 10766 10755 10744 10733 10721 10705 10690 10673 10661 10643 10633 10618 10601 10579 10564 10548 10531 10514 10491 10467 10452 10441 10434 10430 10426 10425 10428 10436 10438 10450 10456 10471 10488 10510 10518 10530 10552
10816 10810 10803 10796 10791 10783 10775 10766 10757 10748 10736 10723 10711 10700 10683 10668 10650 10632 10615 10598 10585 10571 10558 10541 10523 10502 10473 10452 10439 10428 10422 10417 10414 10414 10416 10421 10428 10433 10444 10455 10472 10493 10505 10513 10535
10808 10802 10794 10789 10784 10775 10766 10759 10748 10735 10726 10713 10701 10688 10672 10653 10640 10619 10606 10592 10574 10553 10537 10523 10504 10484 10465 10444 10429 10418 10410 10407 10403 10401 10402 10405 10412 10419 10431 10442 10455 10474 10487 10494 10523
10799 10792 10785 10782 10776 10768 10759 10751 10739 10728 10718 10703 10690 10679 10665 10649 10631 10615 10598 10581 10566 10549 10524 10506 10484 10472 10456 10432 10415 10407 10399 10396 10392 10390 10391 10392 10397 10404 10411 10421 10439 10459 10472 10485 10510
10789 10784 10779 10773 10765 10758 10749 10741 10730 10719 10707 10696 10682 10664 10655 10640 10626 10606 10590 10570 10550 10528 10513 10502 10480 10462 10441 10418 10404 10396 10390 10384 10382 10379 10380 10382 10384 10390 10397 10408 10426 10442 10462 10474 10497
10778 10775 10770 10764 10757 10748 10741 10732 10721 10711 10700 10688 10676 10666 10646 10629 10610 10594 10569 10553 10538 10521 10501 10493 10471 10453 10426 10411 10394 10386 10380 10375 10373 10370 10371 10373 10375 10381 10388 10400 10417 10430 10447 10463 10490
10769 10765 10760 10755 10749 10741 10733 10724 10714 10703 10692 10681 10665 10650 10638 10621 10598 10575 10558 10534 10520 10509 10496 10476 10462 10443 10417 10401 10385 10376 10371 10367 10365 10363 10363 10366 10368 10374 10382 10396 10408 10424 10440 10457 10483
10760 10757 10750 10744 10739 10731 10723 10714 10703 10694 10682 10669 10653 10639 10622 10605 10590 10571 10547 10531 10511 10492 10485 10468 10452 10435 10411 10396 10380 10369 10363 10360 10358 10356 10357 10360 10363 10370 10378 10387 10400 10415 10436 10456 10472
10748 10746 10740 10734 10727 10720 10712 10703 10694 10682 10672 10661 10647 10631 10618 10599 10582 10565 10543 10529 10511 10497 10479 10462 10442 10425 10400 10386 10374 10364 10358 10353 10352 10351 10352 10353 10357 10362 10374 10382 10393 10409 10424 10446 10463
10736 10733 10730 10723 10717 10710 10702 10693 10682 10672 10660 10647 10632 10620 10605 10591 10575 10555 10532 10516 10497 10477 10469 10452 10437 10415 10393 10381 10368 10361 10354 10349 10347 10347 10348 10349 10353 10358 10368 10377 10388 10404 10420 10438 10457
10723 10721 10716 10711 10706 10699 10693 10682 10671 10663 10651 10636 10621 10608 10592 10575 10558 10538 10519 10502 10485 10467 10451 10442 10422 10408 10390 10374 10361 10355 10349 10345 10343 10344 10345 10346 10350 10353 10363 10371 10385 10399 10415 10431 10447
10711 10707 10705 10699 10693 10687 10681 10671 10660 10650 10640 10626 10611 10599 10581 10567 10549 10527 10507 10490 10468 10457 10443 10427 10414 10391 10380 10365 10355 10348 10345 10342 10340 10341 10343 10344 10346 10350 10359 10373 10382 10396 10411 10424 10440
10702 10696 10692 10686 10681 10674 10667 10659 10648 10638 10628 10613 10600 10585 10571 10557 10538 10517 10494 10481 10458 10443 10433 10418 10403 10385 10373 10359 10351 10344 10341 10340 10338 10339 10342 10345 10345 10350 10361 10370 10383 10398 10413 10427 10443
10693 10686 10681 10675 10670 10661 10653 10647 10638 10627 10615 10602 10588 10575 10560 10544 10526 10501 10489 10467 10446 10432 10422 10412 10394 10378 10364 10352 10345 10340 10337 10337 10336 10336 10337 10340 10347 10353 10362 10368 10379 10394 10406 10420 10440
10680 10674 10669 10663 10658 10648 10640 10635 10626 10614 10602 10589 10576 10562 10548 10534 10514 10497 10475 10457 10434 10423 10409 10399 10385 10369 10358 10346 10339 10335 10334 10333 10333 10332 10334 10339 10348 10356 10361 10368 10379 10393 10406 10424 10437
10666 10664 10656 10651 10644 10633 10625 10621 10615 10600 10591 10578 10565 10550 10537 10523 10501 10483 10464 10443 10426 10412 10401 10390 10377 10361 10349 10339 10334 10331 10331 10330 10330 10329 10333 10337 10346 10355 10360 10368 10377 10388 10406 10418 10436
10653 10649 10643 10637 10628 10619 10613 10608 10600 10585 10577 10565 10554 10541 10527 10510 10490 10471 10452 10433 10416 10401 10390 10382 10367 10353 10343 10333 10328 10326 10327 10326 10327 10326 10331 10337 10345 10353 10358 10367 10378 10390 10402 10421 10439
10640 10636 10630 10622 10614 10606 10600 10597 10587 10573 10562 10552 10541 10527 10514 10498 10481 10459 10438 10424 10408 10395 10386 10372 10358 10344 10336 10328 10323 10319 10321 10322 10324 10324 10327 10335 10344 10350 10357 10367 10379 10393 10402 10414 10434
10625 10622 10618 10608 10601 10594 10587 10583 10573 10560 10550 10539 10524 10513 10500 10485 10467 10448 10430 10412 10400 10384 10374 10360 10347 10337 10326 10321 10317 10314 10315 10316 10319 10322 10324 10331 10340 10348 10355 10364 10377 10392 10402 10414 10430